Вернуться в каталог

STARLINK-35250

АктивенСвязьSSO
NORAD 65603·PAYLOAD·🇺🇸 United States

Запущен Sep 13, 2025 с Cape Canaveral Space Force Station

Loading…

Ближайшие Пролёты (ближайшие 24 часа)

TLE

СвежийSource: CelesTrak SupGP

Эпоха: Sep 15, 2026, 03:37 UTC

1 65603C 25207M   26258.15118056  .02324500  00000+0  11383+0 0  2584
2 65603  97.2840 320.8548 0001709  88.6782 303.6705 15.17080739    14

Отслеживайте STARLINK-35250 в реальном времени с AllMySat

Download on the App Store